N1257E KPSP-KLAS

Flight info

Callsign N1257E
Flight time 0h 50m
Altitude 29000
Route HWRRD1 FUSBL TNP RNDRZ4
Aircraft SF50/L-BDGRSWY/LB2U2

Departure

Time 2026-05-06 21:22
Airport Palm Springs International Airport (KPSP)

Arrival

Time 2026-05-06 22:12
Airport Harry Reid International Airport (KLAS)
Time Latitude Longitude Altitude Speed Heading
2026-05-06 21:10 33.82401 -116.49818 404 ft 0 kts 55°
2026-05-06 21:18 33.82397 -116.49806 404 ft 7 kts 156°
2026-05-06 21:18 33.82332 -116.49809 403 ft 8 kts 166°
2026-05-06 21:18 33.82297 -116.49779 403 ft 5 kts 142°
2026-05-06 21:19 33.82278 -116.49762 403 ft 3 kts 143°
2026-05-06 21:19 33.82259 -116.49745 403 ft 4 kts 142°
2026-05-06 21:19 33.82239 -116.49725 403 ft 4 kts 140°
2026-05-06 21:19 33.82214 -116.49696 402 ft 6 kts 120°
2026-05-06 21:20 33.82178 -116.49643 400 ft 10 kts 141°
2026-05-06 21:20 33.82123 -116.49592 400 ft 9 kts 143°
2026-05-06 21:20 33.82078 -116.49554 400 ft 7 kts 149°
2026-05-06 21:20 33.82036 -116.49547 399 ft 6 kts 195°
2026-05-06 21:21 33.82009 -116.49567 400 ft 4 kts 231°
2026-05-06 21:21 33.81981 -116.49612 401 ft 10 kts 233°
2026-05-06 21:21 33.81938 -116.49682 402 ft 10 kts 233°
2026-05-06 21:21 33.81897 -116.49747 404 ft 10 kts 238°
2026-05-06 21:22 33.81911 -116.49827 405 ft 13 kts 323°
2026-05-06 21:22 33.82114 -116.50005 406 ft 72 kts 323°
2026-05-06 21:22 33.82691 -116.50511 530 ft 122 kts 324°
2026-05-06 21:22 33.83390 -116.51145 1163 ft 127 kts 326°
2026-05-06 21:23 33.84204 -116.51862 1645 ft 161 kts 324°
2026-05-06 21:23 33.85120 -116.52708 2322 ft 170 kts 321°
2026-05-06 21:23 33.86107 -116.53552 2860 ft 175 kts 326°
2026-05-06 21:23 33.87112 -116.54378 3500 ft 175 kts 324°
2026-05-06 21:24 33.88097 -116.55220 4132 ft 173 kts 325°
2026-05-06 21:24 33.89070 -116.56048 4761 ft 172 kts 327°
2026-05-06 21:24 33.90169 -116.56550 5344 ft 173 kts 354°
2026-05-06 21:24 33.91406 -116.56513 5706 ft 181 kts 12°
2026-05-06 21:25 33.92530 -116.55940 6441 ft 173 kts 30°
2026-05-06 21:25 33.93442 -116.54987 6998 ft 175 kts 41°
2026-05-06 21:25 33.94335 -116.54004 7567 ft 174 kts 39°
2026-05-06 21:25 33.95232 -116.53025 8122 ft 174 kts 40°
2026-05-06 21:26 33.95976 -116.51868 8657 ft 179 kts 59°
2026-05-06 21:26 33.96379 -116.50414 9095 ft 190 kts 77°
2026-05-06 21:26 33.96346 -116.48854 9756 ft 190 kts 94°
2026-05-06 21:26 33.96015 -116.47291 10251 ft 194 kts 98°
2026-05-06 21:27 33.95692 -116.45719 10757 ft 194 kts 98°
2026-05-06 21:27 33.95367 -116.44146 11262 ft 194 kts 98°
2026-05-06 21:27 33.95039 -116.42567 11761 ft 194 kts 98°
2026-05-06 21:27 33.94931 -116.40975 12263 ft 189 kts 80°
2026-05-06 21:28 33.95084 -116.39406 12770 ft 190 kts 79°
2026-05-06 21:28 33.95201 -116.37815 13290 ft 190 kts 80°
2026-05-06 21:28 33.95328 -116.36231 13804 ft 190 kts 79°
2026-05-06 21:28 33.95459 -116.34641 14246 ft 191 kts 79°
2026-05-06 21:29 33.95592 -116.33049 14676 ft 191 kts 79°
2026-05-06 21:29 33.95719 -116.31449 15108 ft 192 kts 79°
2026-05-06 21:29 33.95855 -116.29847 15555 ft 192 kts 79°
2026-05-06 21:29 33.95988 -116.28235 15975 ft 195 kts 79°
2026-05-06 21:30 33.96112 -116.26653 16447 ft 193 kts 79°
2026-05-06 21:30 33.96149 -116.26182 16572 ft 194 kts 79°
2026-05-06 21:30 33.96205 -116.25475 16774 ft 194 kts 79°
2026-05-06 21:31 33.96301 -116.24230 17104 ft 192 kts 79°
2026-05-06 21:31 33.96430 -116.22622 17498 ft 194 kts 78°
2026-05-06 21:31 33.96561 -116.20999 17903 ft 195 kts 78°
2026-05-06 21:31 33.96694 -116.19372 18315 ft 196 kts 78°
2026-05-06 21:32 33.96826 -116.17736 18658 ft 197 kts 78°
2026-05-06 21:32 33.97126 -116.14439 19313 ft 199 kts 77°
2026-05-06 21:32 33.97310 -116.12784 19653 ft 200 kts 77°
2026-05-06 21:33 33.97494 -116.11116 19961 ft 202 kts 77°
2026-05-06 21:33 33.97678 -116.09436 20270 ft 203 kts 77°
2026-05-06 21:33 33.97863 -116.07744 20587 ft 204 kts 77°
2026-05-06 21:33 33.98048 -116.06041 20893 ft 206 kts 77°
2026-05-06 21:34 33.98173 -116.04905 21110 ft 206 kts 77°
2026-05-06 21:34 33.98358 -116.03196 21467 ft 206 kts 77°
2026-05-06 21:34 33.98544 -116.01487 21809 ft 206 kts 77°
2026-05-06 21:34 33.98730 -115.99777 22152 ft 206 kts 77°
2026-05-06 21:35 33.98917 -115.98070 22503 ft 206 kts 77°
2026-05-06 21:35 33.99102 -115.96363 22830 ft 206 kts 77°
2026-05-06 21:35 33.99292 -115.94638 23044 ft 212 kts 77°
2026-05-06 21:35 33.99491 -115.92820 23042 ft 224 kts 78°
2026-05-06 21:36 33.99695 -115.90913 23040 ft 233 kts 78°
2026-05-06 21:36 33.99944 -115.88955 23030 ft 238 kts 73°
2026-05-06 21:36 34.00523 -115.87081 23038 ft 240 kts 61°
2026-05-06 21:36 34.01439 -115.85385 23039 ft 244 kts 49°
2026-05-06 21:37 34.02665 -115.83961 23041 ft 247 kts 37°
2026-05-06 21:37 34.04100 -115.82790 23039 ft 251 kts 34°
2026-05-06 21:37 34.05560 -115.81597 23042 ft 256 kts 34°
2026-05-06 21:37 34.07025 -115.80394 23038 ft 260 kts 34°
2026-05-06 21:38 34.08541 -115.79163 23035 ft 265 kts 34°
2026-05-06 21:38 34.10082 -115.77921 23041 ft 268 kts 34°
2026-05-06 21:38 34.11589 -115.76597 23035 ft 269 kts 41°
2026-05-06 21:38 34.12951 -115.75035 23024 ft 271 kts 43°
2026-05-06 21:39 34.14339 -115.73486 23025 ft 272 kts 42°
2026-05-06 21:39 34.15737 -115.71936 23028 ft 273 kts 42°
2026-05-06 21:39 34.17129 -115.70369 23024 ft 274 kts 43°
2026-05-06 21:39 34.18525 -115.68796 23022 ft 275 kts 42°
2026-05-06 21:40 34.19904 -115.67247 23028 ft 275 kts 42°
2026-05-06 21:40 34.21304 -115.65672 23027 ft 276 kts 43°
2026-05-06 21:40 34.22711 -115.64088 23026 ft 277 kts 42°
2026-05-06 21:40 34.24121 -115.62500 23008 ft 278 kts 42°
2026-05-06 21:41 34.25536 -115.60907 23007 ft 278 kts 43°
2026-05-06 21:41 34.26953 -115.59311 23012 ft 279 kts 43°
2026-05-06 21:41 34.28372 -115.57711 23004 ft 279 kts 43°
2026-05-06 21:41 34.29791 -115.56112 23013 ft 279 kts 43°
2026-05-06 21:42 34.31210 -115.54512 23010 ft 279 kts 42°
2026-05-06 21:42 34.32766 -115.53115 22998 ft 279 kts 31°
2026-05-06 21:42 34.34524 -115.52106 23005 ft 281 kts 21°
2026-05-06 21:42 34.36364 -115.51329 22998 ft 280 kts 21°
2026-05-06 21:43 34.38198 -115.50522 23001 ft 280 kts 21°
2026-05-06 21:43 34.40032 -115.49716 23001 ft 280 kts 21°
2026-05-06 21:43 34.41868 -115.48920 23000 ft 280 kts 21°
2026-05-06 21:43 34.43707 -115.48122 23001 ft 280 kts 21°
2026-05-06 21:44 34.45543 -115.47322 22982 ft 281 kts 20°
2026-05-06 21:44 34.47380 -115.46523 22976 ft 280 kts 21°
2026-05-06 21:44 34.49216 -115.45724 22983 ft 280 kts 21°
2026-05-06 21:44 34.51052 -115.44924 22978 ft 280 kts 21°
2026-05-06 21:45 34.52884 -115.44125 22984 ft 280 kts 21°
2026-05-06 21:45 34.54718 -115.43326 22983 ft 280 kts 21°
2026-05-06 21:45 34.56550 -115.42525 22989 ft 280 kts 21°
2026-05-06 21:45 34.58381 -115.41725 22987 ft 280 kts 21°
2026-05-06 21:46 34.60212 -115.40924 22992 ft 280 kts 21°
2026-05-06 21:46 34.62044 -115.40123 22992 ft 280 kts 21°
2026-05-06 21:46 34.63877 -115.39322 22993 ft 280 kts 21°
2026-05-06 21:46 34.65708 -115.38520 22983 ft 280 kts 21°
2026-05-06 21:47 34.67540 -115.37720 22995 ft 280 kts 21°
2026-05-06 21:47 34.69374 -115.36917 22995 ft 280 kts 21°
2026-05-06 21:47 34.71206 -115.36115 22992 ft 280 kts 21°
2026-05-06 21:47 34.73039 -115.35313 22991 ft 280 kts 20°
2026-05-06 21:48 34.74929 -115.34760 22993 ft 281 kts 10°
2026-05-06 21:48 34.76889 -115.34664 23000 ft 284 kts 360°
2026-05-06 21:48 34.78851 -115.35040 23002 ft 287 kts 349°
2026-05-06 21:48 34.80737 -115.35885 22996 ft 292 kts 339°
2026-05-06 21:49 34.82475 -115.37188 22996 ft 296 kts 328°
2026-05-06 21:49 34.84060 -115.38802 22995 ft 297 kts 324°
2026-05-06 21:49 34.85647 -115.40406 23015 ft 297 kts 325°
2026-05-06 21:49 34.87236 -115.42005 23019 ft 297 kts 325°
2026-05-06 21:50 34.88820 -115.43617 23019 ft 297 kts 325°
2026-05-06 21:50 34.90404 -115.45230 23019 ft 297 kts 325°
2026-05-06 21:50 34.91989 -115.46840 23019 ft 297 kts 325°
2026-05-06 21:50 34.93572 -115.48450 23018 ft 296 kts 325°
2026-05-06 21:51 34.95154 -115.50060 23026 ft 296 kts 325°
2026-05-06 21:51 34.96735 -115.51670 23027 ft 296 kts 325°
2026-05-06 21:51 34.98315 -115.53282 23042 ft 295 kts 325°
2026-05-06 21:51 34.99889 -115.54888 23052 ft 296 kts 325°
2026-05-06 21:52 35.01470 -115.56495 23052 ft 296 kts 326°
2026-05-06 21:52 35.03027 -115.58082 23051 ft 296 kts 325°
2026-05-06 21:52 35.04625 -115.59714 23050 ft 295 kts 325°
2026-05-06 21:52 35.06179 -115.61301 23050 ft 295 kts 325°
2026-05-06 21:53 35.07754 -115.62909 23061 ft 295 kts 325°
2026-05-06 21:53 35.09328 -115.64521 23047 ft 295 kts 325°
2026-05-06 21:53 35.10900 -115.66129 23052 ft 295 kts 325°
2026-05-06 21:53 35.12472 -115.67737 23052 ft 295 kts 326°
2026-05-06 21:54 35.14038 -115.69344 23053 ft 294 kts 325°
2026-05-06 21:54 35.15604 -115.70946 23053 ft 294 kts 326°
2026-05-06 21:54 35.17168 -115.72549 23052 ft 293 kts 326°
2026-05-06 21:54 35.18731 -115.74152 23052 ft 293 kts 326°
2026-05-06 21:55 35.20323 -115.75696 23045 ft 289 kts 331°
2026-05-06 21:55 35.22086 -115.76831 22993 ft 286 kts 342°
2026-05-06 21:55 35.23997 -115.77533 22687 ft 289 kts 352°
2026-05-06 21:55 35.25993 -115.77768 22310 ft 286 kts
2026-05-06 21:56 35.27965 -115.77588 21932 ft 283 kts
2026-05-06 21:56 35.29931 -115.77365 21557 ft 285 kts
2026-05-06 21:56 35.31913 -115.77150 21176 ft 287 kts
2026-05-06 21:56 35.33876 -115.76945 20807 ft 289 kts
2026-05-06 21:57 35.35880 -115.76726 20424 ft 289 kts
2026-05-06 21:57 35.37889 -115.76502 20040 ft 290 kts
2026-05-06 21:57 35.39896 -115.76282 19669 ft 290 kts
2026-05-06 21:57 35.41908 -115.76062 19286 ft 290 kts
2026-05-06 21:58 35.43926 -115.75839 18900 ft 292 kts
2026-05-06 21:58 35.45959 -115.75614 18513 ft 295 kts
2026-05-06 21:58 35.48007 -115.75389 18096 ft 296 kts
2026-05-06 21:58 35.50061 -115.75163 17648 ft 297 kts
2026-05-06 21:59 35.52117 -115.74936 17242 ft 296 kts
2026-05-06 21:59 35.54171 -115.74710 16853 ft 297 kts
2026-05-06 21:59 35.56214 -115.74400 16454 ft 294 kts 13°
2026-05-06 21:59 35.58151 -115.73641 16067 ft 292 kts 24°
2026-05-06 22:00 35.59917 -115.72460 15993 ft 287 kts 33°
2026-05-06 22:00 35.61457 -115.70926 15984 ft 284 kts 43°
2026-05-06 22:00 35.62761 -115.69186 15985 ft 280 kts 47°
2026-05-06 22:00 35.64069 -115.67422 15983 ft 278 kts 46°
2026-05-06 22:01 35.65376 -115.65674 15983 ft 278 kts 46°
2026-05-06 22:01 35.66677 -115.63914 16002 ft 277 kts 46°
2026-05-06 22:01 35.67955 -115.62180 16001 ft 277 kts 46°
2026-05-06 22:01 35.69249 -115.60427 15999 ft 277 kts 46°
2026-05-06 22:02 35.70542 -115.58678 15997 ft 276 kts 46°
2026-05-06 22:02 35.71833 -115.56933 15998 ft 275 kts 46°
2026-05-06 22:02 35.73247 -115.55361 15995 ft 274 kts 36°
2026-05-06 22:02 35.74875 -115.54143 15994 ft 274 kts 29°
2026-05-06 22:03 35.76536 -115.52993 15973 ft 275 kts 30°
2026-05-06 22:03 35.78213 -115.51806 15699 ft 283 kts 30°
2026-05-06 22:03 35.79946 -115.50589 15337 ft 290 kts 30°
2026-05-06 22:03 35.81699 -115.49365 14961 ft 289 kts 30°
2026-05-06 22:04 35.83448 -115.48144 14571 ft 289 kts 30°
2026-05-06 22:04 35.85193 -115.46915 14186 ft 287 kts 30°
2026-05-06 22:04 35.86919 -115.45702 13805 ft 285 kts 30°
2026-05-06 22:04 35.88600 -115.44429 13384 ft 283 kts 34°
2026-05-06 22:05 35.90073 -115.42805 12975 ft 284 kts 46°
2026-05-06 22:05 35.91248 -115.40863 12440 ft 290 kts 56°
2026-05-06 22:05 35.92147 -115.38806 11769 ft 256 kts 60°
2026-05-06 22:05 35.92926 -115.36934 11130 ft 235 kts 60°
2026-05-06 22:06 35.93660 -115.35164 10470 ft 230 kts 61°
2026-05-06 22:06 35.94370 -115.33416 9901 ft 225 kts 61°
2026-05-06 22:06 35.95068 -115.31709 9332 ft 219 kts 59°
2026-05-06 22:06 35.95739 -115.30056 8870 ft 213 kts 59°
2026-05-06 22:07 35.96390 -115.28430 8368 ft 211 kts 60°
2026-05-06 22:07 35.97036 -115.26811 7814 ft 211 kts 60°
2026-05-06 22:07 35.97718 -115.25200 7302 ft 211 kts 59°
2026-05-06 22:07 35.98440 -115.23591 6842 ft 218 kts 58°
2026-05-06 22:08 35.99236 -115.21991 6448 ft 218 kts 55°
2026-05-06 22:08 36.00088 -115.20469 6091 ft 213 kts 52°
2026-05-06 22:08 36.01017 -115.19046 5693 ft 214 kts 49°
2026-05-06 22:08 36.01982 -115.17653 5399 ft 210 kts 46°
2026-05-06 22:09 36.02972 -115.16381 5179 ft 202 kts 45°
2026-05-06 22:09 36.04009 -115.15172 4712 ft 207 kts 40°
2026-05-06 22:09 36.05136 -115.14068 4372 ft 203 kts 37°
2026-05-06 22:09 36.06191 -115.13084 4114 ft 197 kts 37°
2026-05-06 22:10 36.07295 -115.12076 3932 ft 187 kts 36°
2026-05-06 22:10 36.08450 -115.11372 3603 ft 185 kts 17°
2026-05-06 22:10 36.09688 -115.11237 3278 ft 168 kts 354°
2026-05-06 22:10 36.10654 -115.11717 3093 ft 139 kts 324°
2026-05-06 22:11 36.11145 -115.12590 2896 ft 116 kts 287°
2026-05-06 22:11 36.11195 -115.13562 2717 ft 116 kts 264°
2026-05-06 22:11 36.10993 -115.14555 2547 ft 123 kts 245°
2026-05-06 22:11 36.10453 -115.15369 2322 ft 125 kts 206°
2026-05-06 22:12 36.09696 -115.15800 2142 ft 115 kts 200°
2026-05-06 22:12 36.09037 -115.16177 2114 ft 90 kts 202°
2026-05-06 22:12 36.08605 -115.16424 2130 ft 52 kts 209°
2026-05-06 22:12 36.08406 -115.16618 2141 ft 25 kts 230°
2026-05-06 22:13 36.08377 -115.16669 2145 ft 0 kts 232°
2026-05-06 22:13 36.08376 -115.16669 2145 ft 0 kts 232°
2026-05-06 22:13 36.08354 -115.16697 2147 ft 10 kts 224°
2026-05-06 22:13 36.08274 -115.16770 2152 ft 15 kts 234°
2026-05-06 22:14 36.08267 -115.16800 2154 ft 12 kts 274°
2026-05-06 22:14 36.08271 -115.16848 2157 ft 6 kts 241°
2026-05-06 22:14 36.08233 -115.16877 2157 ft 8 kts 204°
2026-05-06 22:14 36.08156 -115.16925 2161 ft 16 kts 227°
2026-05-06 22:15 36.08148 -115.17035 2165 ft 8 kts 270°
2026-05-06 22:15 36.08147 -115.17089 2166 ft 7 kts 269°
2026-05-06 22:15 36.08126 -115.17134 2167 ft 8 kts 178°
2026-05-06 22:15 36.08097 -115.17109 2167 ft 1 kts 94°
2026-05-06 22:16 36.08097 -115.17108 2167 ft 0 kts 92°